FREGAT DEB, 47332

Orbit data source: Space-Track

FREGAT DEB, 47332 is space debris in LEO originally from a launch on Mon, 18 Jul 2011 UTC launched from the Tyuratam Missile And Space Complex (TTMTR). Debris objects in space refer to the collection of defunct objects orbiting the Earth. Examples of debris include non-operational satellites, rocket bodies, and fragments generated from explosions, collisions, or faulty payload assembly.

Loading next visibility...
Identifier
47332, 2011-037NP
Orbit
LEO
Country
Flag of CISCIS
Related business
Manufacturer
Lavochkin
Mission
Spacecraft
Bus & Motor
Unknown
Mass
Unknown
Launch date (UTC)
2011-07-18 (14 years ago)
Launch vehicle
Unknown
Launch site
Tyuratam Missile And Space Complex (TTMTR)
Object type
Payload
Rocket body
Debris
Shape & HBR
Unknown shape, 0.1 m
Radar Cross Section
Small (<0.1 m²)

Expand to show TLE details & history
Last TLE update: 15 hours ago

TLE from 15 hours ago
0 FREGAT DEB
1 47332U 11037NP  25291.15903390  .00003193  00000-0  73281-3 0  9990
2 47332  51.4167  85.2337 1886983 209.8820 137.9810 11.28930169196617
Epoch: 2025-10-18T03:49Z
TLE epoch observation values (Epoch: 2025-10-18T03:49:00.528Z)
Latitude
0.00004°
Longitude
1.08747°
Altitude
3,302.178 km
Speed
5.907 km/s
True Right ascension
05h 40m 56s
True Declination
0° 00' 00"
Sunlit
Object was in daylight at epoch
Visualization orbit readout
Latitude
Unknown
Longitude
Unknown
Altitude
Unknown
Speed
Unknown
Apparent Right ascension
Unknown
Apparent Declination
Unknown
Sunlit
N/A
Visualization observer readout
Local Sidereal Time
13:26:25
Azimuth
Unknown
Elevation
Unknown
Doppler factor
Unknown
Orbital elements
Apogee altitude
3,600.08 km
Perigee altitude
432.123 km
Semi-major axis
8,394.238 km
Eccentricity
0.1887
Inclination
51.4167°
RAAN
85.2337°
Arg. of periapsis
209.882°
True anomaly
150.19674°
Mean anomaly
137.981°
Eccentric anomaly
144.29135°
Mean motion
2.82209 °/min
Orbital period
127.56 mins
BSTAR
0.00073281
Loading maneuver chart data...
Computing Atmospheric mass density...
Loading historical data...
Loading historical data...
Loading historical data...
Loading historical data...
Loading historical data...
Loading historical data...
Loading historical data...

Documentation

Showing up to 5 results
|